Temperature
6 7 7 8 8 9 10 10 11 11 11 11 12 12 12 12 12 12 12 12 12 11 11 11 11 12 12 12 12 12 12 12 12 12 12 12 12 12 12 12 12 12 12 12
7 7 7 8 8 9 10 10 10 10 10 11 11 12 12 12 11 12 12 12 11 11 10 10 11 11 12 12 12 12 12 12 12 12 12 12 12 11 11 11 11 11 11 11
6 6 7 7 8 8 9 9 10 9 10 10 10 11 11 12 11 11 11 10 10 10 10 10 10 11 11 11 11 11 11 11 11 11 11 11 11 11 11 11 11 11 11 11
6 6 7 7 7 8 8 9 9 9 9 10 10 11 12 12 11 11 10 10 10 9 9 9 10 10 10 11 11 11 11 11 11 11 11 11 11 11 11 11 11 11 11 11
6 6 6 6 7 7 8 9 9 9 9 9 9 10 12 11 11 11 11 10 9 9 9 9 9 10 10 10 10 11 11 11 11 11 11 11 11 11 11 11 11 10 10 10
5 5 6 6 7 7 8 8 8 8 8 8 9 10 11 11 11 11 11 9 9 8 8 9 9 9 9 9 10 10 10 10 10 10 10 10 10 10 10 10 10 10 10 10
5 6 5 6 6 7 8 8 8 8 8 9 9 9 10 11 10 10 10 9 8 8 8 8 8 8 9 9 9 10 10 10 10 10 10 10 10 10 10 10 10 10 10 10
5 6 5 6 6 6 7 7 8 8 9 9 9 9 10 9 9 8 8 8 7 7 7 8 8 8 8 9 9 9 9 9 10 10 10 10 9 9 10 9 9 9 9 9
5 5 5 5 6 6 6 7 7 7 8 8 9 9 9 9 8 8 7 7 6 6 6 7 7 8 8 8 8 8 9 9 9 9 9 9 9 9 9 9 9 9 9 9
4 4 5 5 6 6 6 6 6 6 7 8 9 9 10 8 8 8 7 6 6 5 6 6 6 7 7 8 8 8 8 8 8 8 8 8 9 8 8 9 9 9 8 8
3 3 5 5 5 5 5 5 6 6 7 8 9 9 8 8 7 7 7 5 5 4 5 5 6 6 6 7 7 7 7 7 8 8 8 8 8 8 8 8 8 8 8 8
3 3 4 4 4 4 5 5 5 6 6 7 8 8 6 6 6 6 5 4 4 4 4 4 5 5 6 6 6 7 7 7 7 7 7 8 8 8 7 7 7 7 8 8
2 2 4 5 4 4 4 4 4 5 5 6 7 8 6 5 5 4 4 3 3 3 3 4 4 4 5 5 5 6 6 6 6 6 7 7 7 7 7 7 7 7 7 7
2 1 3 5 5 4 3 4 4 4 5 6 7 7 6 5 5 4 3 3 3 2 3 3 3 4 4 4 5 5 5 5 6 6 6 6 6 6 6 6 6 6 6 6
1 2 1 2 3 3 3 3 3 3 5 5 6 6 6 5 4 3 2 2 2 2 2 2 2 3 3 3 4 4 4 5 5 5 5 6 6 6 6 6 6 6 5 5
-1 1 1 1 3 2 2 3 3 3 4 5 5 5 4 3 2 2 2 1 1 1 1 1 2 2 2 3 3 3 4 4 4 4 5 5 5 5 5 5 5 5 5 5
-0 -0 1 3 2 2 2 2 2 3 3 4 4 4 3 3 2 2 1 1 0 -0 0 0 1 1 2 2 3 3 3 3 3 4 4 4 4 4 4 4 4 4 4 4
-2 -1 0 1 1 2 3 1 1 2 1 2 2 2 2 2 1 -0 -0 -0 -0 -0 -0 0 0 1 1 2 2 2 2 2 3 3 3 3 3 3 4 3 3 3 3 3
-1 -1 0 1 2 2 2 0 -1 0 1 0 1 1 0 -0 0 0 -1 -1 -1 -1 -1 -0 0 0 1 1 1 2 2 2 2 2 2 3 3 3 3 3 3 3 2 2
-2 -2 -0 0 2 2 2 -1 -2 -1 1 -0 -1 -0 -1 -0 2 2 -1 -1 -1 -1 -1 -1 -0 -0 0 1 1 1 1 1 1 2 2 2 2 2 2 2 2 2 2 2
-2 -2 -1 0 1 1 -0 -2 -2 1 1 -1 -2 -2 -2 -1 -0 -2 -2 -2 -2 -2 -1 -1 -1 -1 -0 -0 -0 0 0 0 1 1 1 1 1 1 1 1 1 1 1 1
-2 -1 -1 -1 0 1 -2 -2 -1 -0 -2 -3 -3 -3 -3 -3 -3 -3 -3 -3 -3 -2 -2 -2 -1 -1 -1 -1 -1 -1 -1 -0 -0 -0 0 0 0 0 0 1 1 0 0 0
-3 -2 -1 -1 -0 -1 -3 -3 -3 -3 -3 -3 -3 -4 -4 -4 -4 -4 -4 -3 -3 -3 -3 -2 -2 -2 -2 -2 -1 -1 -1 -1 -1 -1 -0 -0 -0 -0 -0 -0 -0 -0 -0 -0
-3 -4 -3 -3 -2 -3 -4 -4 -4 -4 -4 -4 -4 -4 -4 -4 -4 -4 -4 -4 -4 -4 -3 -3 -3 -3 -2 -2 -2 -2 -2 -2 -2 -1 -1 -1 -1 -1 -1 -1 -1 -1 -1 -1
-3 -4 -4 -3 -3 -3 -3 -4 -4 -4 -4 -4 -4 -4 -4 -4 -4 -4 -4 -4 -4 -4 -4 -4 -3 -3 -3 -3 -2 -2 -2 -2 -2 -2 -2 -2 -2 -2 -2 -2 -2 -2 -1 -1
-5 -4 -3 -2 -3 -3 -3 -4 -4 -4 -4 -4 -4 -4 -4 -4 -5 -5 -5 -5 -5 -4 -4 -4 -4 -4 -3 -3 -3 -3 -3 -3 -3 -3 -2 -2 -2 -2 -2 -2 -2 -2 -2 -2
Wind_Speed
2 4 6 8 10 10 11 12 11 8 5 9 12 11 8 5 6 8 8 8 8 8 7 7 7 8 7 8 9 10 10 10 8 7 6 6 5 4 4 4 6 6 6 6
3 4 5 6 7 8 10 12 10 5 4 6 9 10 8 7 8 8 9 8 8 6 5 6 6 7 7 8 10 10 10 10 9 7 6 4 4 4 4 4 5 5 6 6
1 1 3 4 5 7 9 11 10 6 3 4 6 8 9 7 7 7 7 7 7 7 7 6 6 7 7 8 9 9 9 9 9 8 6 5 4 3 3 4 3 4 5 6
1 1 3 4 4 6 7 8 7 7 7 5 7 8 10 9 8 8 8 7 7 7 6 6 6 6 7 7 7 9 9 9 9 10 9 9 7 6 6 5 4 5 5 5
0 0 2 4 4 5 5 5 6 7 6 4 7 7 7 8 10 10 9 8 7 7 6 6 6 6 6 7 7 7 8 9 9 9 10 9 8 6 5 5 6 5 5 5
1 0 1 2 3 4 3 5 5 5 4 7 9 9 8 8 11 9 8 7 6 5 5 5 4 4 4 4 5 7 8 8 9 9 9 9 9 8 8 8 7 5 4 4
2 1 0 1 1 2 4 5 3 4 5 6 8 8 6 5 6 7 8 6 4 3 3 4 4 4 3 4 4 6 7 7 8 9 8 8 9 9 9 9 8 7 5 4
1 1 1 0 1 2 5 5 3 4 6 4 6 9 4 1 2 3 3 3 2 1 1 2 3 3 4 4 4 5 7 7 7 7 7 7 7 6 6 7 7 7 6 5
1 2 1 1 1 2 3 4 2 1 2 4 6 5 3 1 1 0 1 1 1 1 1 1 2 3 4 4 4 5 5 6 6 6 6 6 6 6 6 7 6 5 5 5
2 3 2 1 1 1 2 2 2 3 3 4 6 7 4 3 2 1 1 1 2 2 1 1 1 2 3 3 3 3 4 5 5 5 5 5 5 5 6 6 6 6 6 6
2 1 1 1 1 2 2 3 2 2 3 4 5 3 1 3 2 2 1 2 2 2 2 2 1 1 2 2 2 2 3 3 3 3 4 4 4 4 5 5 6 6 6 6
1 1 2 2 2 2 3 4 4 3 3 3 3 1 2 1 2 2 2 2 2 2 2 1 0 1 1 1 1 2 2 3 3 2 3 3 4 4 5 5 5 6 6 6
1 1 1 1 2 1 2 3 3 2 2 4 4 2 2 1 2 3 3 3 2 3 2 2 2 1 1 1 0 1 2 2 2 2 3 3 4 4 5 5 5 5 5 5
1 1 3 4 3 2 4 4 5 5 4 5 7 6 4 4 4 5 4 3 2 3 2 2 2 2 2 1 0 1 1 2 2 2 3 2 3 4 4 4 4 5 5 5
1 2 3 6 7 5 6 8 7 8 8 7 7 7 7 6 6 5 3 3 3 3 3 2 2 2 2 2 1 1 1 2 2 3 2 2 2 3 3 4 4 4 4 3
1 1 2 3 4 4 7 9 10 10 10 11 10 10 7 5 4 4 3 2 2 3 3 3 3 2 2 2 1 0 1 1 2 3 2 2 3 3 3 4 4 4 3 3
1 1 1 2 2 2 5 6 7 7 6 7 9 8 4 4 4 5 5 4 3 3 3 3 3 3 2 2 1 0 0 1 2 2 3 3 3 3 4 4 4 4 3 3
2 1 1 2 1 4 1 1 2 4 4 4 5 5 5 6 5 4 4 4 3 3 3 4 4 4 3 2 1 0 1 1 2 2 2 2 3 3 4 4 4 4 3 3
4 3 2 1 2 5 3 2 1 3 4 3 5 5 5 5 4 3 4 3 3 4 3 4 4 3 2 2 1 1 1 2 2 2 2 2 2 3 3 4 4 4 3 3
1 2 3 2 3 4 1 1 3 3 4 1 3 4 4 4 4 4 4 4 4 4 3 3 3 2 2 1 1 1 1 2 2 1 1 2 2 2 3 3 3 3 3 3
1 1 3 5 5 4 2 2 1 4 2 2 3 4 4 4 4 4 5 4 4 3 3 3 2 2 2 1 1 1 1 1 1 1 1 2 2 2 3 3 3 3 4 3
3 3 4 4 5 5 0 1 3 3 3 3 4 4 4 4 4 4 4 4 3 3 3 3 2 2 2 1 1 1 1 1 1 1 2 2 2 2 3 4 3 3 4 4
4 4 3 5 5 2 1 3 4 4 4 5 4 4 4 4 4 4 4 3 3 2 3 3 2 2 1 1 0 1 0 1 1 2 2 2 2 2 3 3 4 3 3 3
3 3 4 5 7 6 5 5 5 5 4 4 4 4 4 4 4 4 3 3 3 2 2 2 2 1 2 1 1 0 1 1 1 2 1 2 2 2 2 2 2 3 3 2
4 4 4 6 7 6 5 5 5 5 4 4 4 3 4 4 4 3 3 3 2 2 2 2 2 1 2 1 1 0 1 2 2 2 1 1 2 2 2 2 2 2 2 2
5 6 5 5 4 4 4 4 4 4 4 4 4 4 3 3 3 3 2 2 2 2 2 2 2 1 2 1 1 1 1 2 2 2 1 1 1 2 2 2 2 2 1 2
Wind_Direction
167 181 201 205 207 215 208 207 212 219 216 216 223 237 234 226 216 219 223 219 214 211 198 185 180 175 166 168 172 169 169 164 157 155 157 157 158 154 149 144 147 152 152 153
156 198 217 221 211 211 206 208 210 209 214 224 227 240 237 228 227 223 222 222 219 213 198 187 175 171 175 176 176 175 175 170 169 168 166 162 152 152 150 144 149 157 157 156
170 222 206 207 201 203 207 206 207 205 219 226 222 235 229 228 229 226 226 226 220 208 204 194 181 179 183 185 183 182 179 173 172 165 152 138 132 133 156 166 170 167 167 163
235 233 181 192 207 205 212 210 207 199 199 214 212 230 222 219 220 220 222 224 224 218 211 198 188 187 192 194 190 185 178 176 173 170 169 169 176 181 186 181 179 171 172 170
323 225 180 205 227 219 214 207 205 200 204 221 222 234 227 208 222 223 223 226 227 221 212 202 198 197 196 192 187 185 181 179 177 177 177 179 184 182 171 168 171 175 172 173
36 254 227 243 239 222 196 179 184 195 205 221 216 222 230 210 223 225 227 230 230 222 213 206 204 195 192 184 183 180 180 180 180 180 180 184 183 176 173 173 175 179 178 179
22 73 334 239 192 181 168 163 174 191 207 225 203 219 236 222 226 227 225 224 225 216 206 200 198 193 184 183 187 182 180 180 181 182 184 187 188 184 184 184 184 182 183 188
358 324 359 295 237 219 191 189 196 207 215 223 203 220 219 231 247 249 229 208 202 193 194 197 191 190 191 194 191 188 189 186 185 186 185 184 183 187 191 192 188 186 189 189
327 305 359 325 257 205 188 195 235 247 231 219 208 218 236 263 290 330 155 156 227 253 274 255 214 197 199 199 197 195 192 189 187 189 182 180 181 186 189 189 188 184 183 179
328 287 301 319 232 184 217 178 180 188 201 220 216 221 218 200 242 250 208 236 274 283 292 291 253 227 211 202 195 190 192 191 189 185 184 183 186 187 188 185 181 180 178 175
321 267 284 245 211 223 183 180 206 201 254 241 222 217 188 213 231 239 250 282 288 293 286 279 264 232 222 187 171 172 171 166 174 180 179 178 178 177 180 182 181 176 176 176
331 276 257 267 278 269 226 212 204 209 222 247 244 229 73 31 341 306 305 323 326 329 317 319 347 150 132 128 165 170 170 167 173 164 165 166 164 166 173 176 174 172 174 175
316 252 253 196 173 183 223 220 218 214 226 233 232 217 101 25 352 343 334 341 350 3 13 24 40 62 88 90 155 176 171 169 159 142 140 148 160 166 171 170 168 167 171 173
272 242 240 247 283 279 257 252 226 209 222 231 238 256 278 310 318 330 336 343 355 12 21 26 27 24 28 35 73 140 145 144 137 132 132 144 161 168 164 159 161 164 169 174
337 262 258 270 273 257 263 264 248 230 233 234 247 261 286 308 314 322 329 340 354 7 11 8 6 9 19 21 25 72 125 132 129 127 129 141 144 144 148 151 153 151 154 162
1 266 279 277 255 248 267 269 256 245 243 239 250 270 291 311 318 316 320 327 331 341 351 353 355 357 4 7 12 58 130 134 131 129 128 123 133 136 140 144 146 142 143 151
283 239 284 280 311 277 265 263 246 231 236 238 249 263 297 310 316 318 322 317 309 320 333 339 339 339 342 341 330 233 171 142 133 125 121 126 131 136 135 137 142 142 148 151
205 193 255 289 286 235 264 33 274 243 255 258 261 285 290 293 303 319 319 310 309 318 327 329 332 335 341 346 353 55 108 133 130 127 125 121 130 136 137 138 143 144 150 154
216 204 225 241 256 267 279 297 292 255 267 282 264 283 296 307 294 301 333 328 312 313 317 319 322 325 338 353 14 81 100 119 126 126 123 124 127 135 143 145 147 150 151 151
133 207 225 221 243 252 288 9 330 263 255 314 277 279 290 290 270 302 346 333 324 322 323 324 324 332 348 3 58 106 110 120 123 121 124 119 129 144 155 153 148 147 146 143
163 200 221 229 241 262 310 326 267 225 283 341 292 284 281 276 283 306 316 318 320 321 322 322 320 329 339 357 115 130 121 108 81 91 106 109 124 137 147 141 138 142 139 137
203 203 207 211 225 247 79 139 222 279 320 303 292 291 288 282 289 295 303 309 319 326 330 331 331 335 341 358 139 141 126 76 80 93 98 98 113 123 138 135 137 142 143 139
221 223 227 217 236 294 221 247 276 293 287 292 290 287 282 280 284 292 294 299 308 318 326 332 331 329 334 341 177 159 129 95 102 103 100 101 109 115 135 143 146 144 147 144
229 227 233 252 260 274 277 272 280 291 293 297 291 288 277 269 276 284 285 289 301 306 311 313 315 325 331 334 321 188 156 139 131 121 108 107 112 115 127 137 150 156 160 158
234 200 226 250 271 290 279 276 285 297 301 305 309 292 275 264 267 271 276 282 287 298 301 290 286 298 307 312 313 229 170 159 148 137 130 129 134 141 139 142 153 169 175 181
211 208 215 240 241 244 277 301 302 293 296 303 309 313 308 278 267 272 277 283 283 286 289 284 285 285 294 299 297 287 203 168 159 155 157 158 160 157 154 147 126 92 119 117
Height
1482 1482 1480 1480 1480 1480 1479 1479 1480 1481 1485 1486 1484 1484 1486 1488 1489 1490 1490 1491 1493 1494 1496 1498 1500 1502 1504 1507 1510 1513 1516 1519 1522 1525 1528 1531 1533 1536 1539 1541 1542 1544 1545 1546
1481 1481 1481 1482 1481 1480 1479 1479 1480 1483 1486 1486 1484 1484 1485 1486 1488 1488 1489 1490 1491 1492 1494 1495 1497 1499 1502 1505 1508 1511 1513 1516 1520 1523 1526 1529 1532 1534 1537 1539 1540 1542 1543 1544
1480 1483 1483 1482 1480 1480 1479 1479 1480 1483 1486 1485 1485 1483 1483 1484 1486 1488 1488 1489 1490 1491 1492 1493 1494 1496 1499 1502 1505 1508 1511 1514 1517 1521 1524 1527 1530 1532 1535 1536 1538 1540 1541 1542
1482 1483 1483 1483 1482 1480 1479 1480 1481 1483 1485 1484 1484 1480 1476 1479 1482 1484 1486 1487 1488 1490 1491 1491 1492 1494 1496 1500 1503 1506 1509 1512 1515 1518 1522 1524 1526 1529 1531 1534 1536 1538 1539 1540
1483 1484 1483 1482 1483 1482 1480 1482 1483 1483 1483 1486 1485 1483 1472 1476 1478 1479 1482 1484 1486 1487 1488 1490 1491 1493 1495 1498 1500 1503 1506 1509 1512 1516 1519 1522 1525 1527 1529 1531 1533 1535 1536 1538
1485 1486 1486 1485 1484 1483 1482 1482 1483 1484 1484 1487 1482 1481 1471 1473 1475 1476 1480 1482 1484 1485 1487 1488 1490 1492 1494 1495 1498 1501 1503 1506 1510 1513 1516 1518 1521 1524 1526 1528 1530 1532 1533 1534
1485 1486 1487 1486 1484 1483 1481 1482 1482 1483 1483 1478 1477 1479 1473 1472 1475 1476 1479 1480 1482 1483 1485 1486 1488 1489 1490 1493 1495 1498 1500 1503 1506 1509 1512 1515 1518 1521 1523 1525 1527 1528 1530 1531
1486 1484 1487 1487 1486 1484 1482 1482 1480 1479 1475 1473 1478 1474 1471 1475 1477 1478 1479 1480 1481 1482 1483 1484 1485 1487 1489 1491 1493 1495 1497 1500 1502 1506 1509 1512 1514 1517 1519 1521 1523 1525 1527 1528
1488 1486 1487 1488 1487 1486 1484 1483 1484 1483 1479 1479 1474 1472 1474 1475 1476 1477 1478 1479 1479 1480 1480 1482 1483 1485 1487 1488 1490 1492 1494 1497 1499 1502 1505 1508 1510 1513 1516 1518 1520 1522 1523 1525
1496 1492 1487 1488 1487 1487 1487 1486 1486 1484 1480 1471 1468 1467 1467 1473 1474 1475 1477 1477 1478 1479 1479 1479 1480 1482 1484 1486 1488 1490 1492 1494 1497 1499 1502 1504 1507 1509 1512 1514 1516 1518 1520 1521
1498 1495 1489 1488 1488 1486 1488 1489 1486 1483 1481 1472 1466 1468 1472 1473 1475 1475 1477 1478 1478 1478 1478 1478 1479 1481 1482 1484 1485 1488 1490 1491 1493 1496 1498 1501 1503 1506 1508 1510 1513 1515 1516 1518
1499 1496 1490 1490 1491 1491 1488 1487 1486 1483 1484 1479 1469 1473 1477 1478 1478 1477 1477 1478 1477 1477 1477 1477 1478 1480 1481 1482 1483 1485 1486 1488 1491 1493 1495 1497 1499 1502 1504 1507 1509 1511 1513 1515
1500 1499 1489 1484 1490 1492 1490 1488 1488 1487 1485 1479 1472 1474 1478 1479 1478 1478 1478 1477 1477 1477 1477 1477 1477 1478 1479 1480 1482 1483 1484 1486 1487 1490 1491 1494 1496 1498 1501 1503 1505 1507 1509 1511
1501 1500 1495 1485 1483 1488 1489 1488 1487 1486 1482 1477 1472 1472 1475 1477 1477 1478 1478 1477 1477 1476 1476 1476 1477 1477 1477 1479 1480 1481 1482 1483 1485 1487 1489 1491 1493 1495 1497 1499 1501 1503 1505 1506
1502 1499 1498 1493 1490 1490 1490 1487 1486 1486 1481 1478 1472 1473 1475 1477 1478 1479 1478 1477 1476 1476 1476 1476 1476 1476 1476 1477 1478 1479 1480 1481 1482 1484 1486 1488 1490 1492 1494 1496 1498 1499 1501 1502
1503 1501 1500 1494 1490 1489 1488 1485 1484 1483 1481 1478 1476 1476 1478 1479 1479 1478 1478 1477 1476 1476 1475 1475 1475 1475 1475 1475 1476 1477 1478 1479 1480 1482 1483 1485 1487 1488 1490 1492 1494 1495 1497 1499
1503 1502 1497 1488 1490 1489 1484 1483 1482 1481 1480 1478 1475 1476 1477 1478 1478 1478 1478 1477 1476 1476 1475 1474 1474 1474 1474 1474 1475 1475 1476 1477 1478 1479 1481 1482 1484 1485 1487 1489 1491 1492 1494 1496
1505 1503 1499 1492 1492 1487 1482 1486 1485 1483 1482 1481 1479 1478 1479 1479 1479 1478 1477 1477 1476 1475 1474 1473 1473 1472 1472 1473 1473 1474 1474 1475 1476 1477 1478 1480 1482 1483 1485 1486 1488 1490 1492 1493
1504 1503 1498 1494 1489 1481 1483 1486 1487 1485 1481 1482 1481 1480 1480 1479 1477 1476 1476 1476 1475 1475 1474 1473 1472 1472 1472 1472 1472 1472 1472 1473 1474 1475 1477 1478 1480 1481 1482 1484 1486 1487 1489 1490
1504 1503 1500 1495 1488 1480 1480 1488 1488 1487 1480 1481 1481 1480 1479 1478 1475 1475 1475 1474 1474 1473 1472 1472 1471 1471 1471 1470 1471 1471 1471 1472 1472 1474 1475 1476 1478 1479 1481 1482 1484 1485 1487 1488
1503 1502 1499 1494 1489 1482 1486 1488 1487 1483 1477 1481 1480 1479 1478 1477 1476 1476 1474 1473 1472 1472 1471 1471 1470 1470 1469 1469 1469 1470 1470 1470 1471 1473 1474 1475 1476 1477 1479 1480 1482 1483 1484 1485
1499 1496 1497 1494 1488 1484 1487 1487 1485 1481 1481 1480 1478 1477 1476 1475 1474 1473 1472 1471 1471 1470 1469 1469 1468 1468 1469 1468 1468 1468 1469 1469 1470 1472 1473 1473 1474 1476 1477 1478 1479 1481 1482 1483
1499 1496 1492 1491 1487 1485 1485 1484 1483 1482 1479 1477 1476 1475 1474 1473 1472 1471 1470 1470 1469 1468 1468 1468 1467 1467 1467 1467 1467 1467 1467 1468 1469 1471 1471 1472 1473 1474 1475 1476 1477 1479 1480 1481
1496 1497 1495 1491 1484 1484 1483 1482 1480 1478 1476 1475 1474 1473 1472 1471 1470 1469 1469 1468 1467 1467 1466 1466 1466 1465 1465 1466 1466 1466 1466 1467 1468 1469 1470 1470 1471 1472 1473 1475 1476 1477 1478 1479
1492 1493 1491 1487 1483 1482 1480 1479 1478 1476 1475 1473 1472 1471 1470 1469 1468 1468 1467 1466 1466 1465 1465 1465 1464 1464 1464 1464 1464 1465 1465 1466 1467 1467 1468 1469 1470 1471 1472 1473 1474 1475 1476 1477
1487 1487 1485 1480 1480 1480 1478 1477 1476 1474 1473 1471 1470 1468 1468 1467 1466 1465 1465 1464 1464 1463 1463 1463 1462 1462 1462 1462 1463 1463 1464 1465 1465 1465 1466 1467 1468 1469 1470 1471 1472 1473 1474 1474